Weather in Copenhagen

Denmark     55°40′50″N   12°35′08″E
temp.,
°C
wind,
m/s
gust,
m/s
humid.,
%
clouds,
%
prec.,
mm/h
press.,
hPa
HPBL,
m
17 may, mon
mon1723:00+9se36885 0.0 1001232
02:00+9se249211 0.0 1001103
05:00+8s129211 0.0 100021
08:00+12ssw23745 0.0 1001340
11:00+15s345721 0.1 10011152
14:00+16s455946 0.9 10021455
17:00+15ssw346464 0.9 1002963
20:00+13ssw23775 1.6 1003148
18 may, tue
tue1823:00+10sw238817 0.1 100458
02:00+8wsw228913 0.1 100539
05:00+9w2288100 0.0 100569
08:00+10w2387100 0.0 1007172
11:00+14w236833 0.1 1008915
14:00+15w345594 0.6 10081531
17:00+14wnw555928 0.2 10091250
20:00+12nw36734 0.2 1010533
19 may, wed
wed1923:00+9wnw25845 0.0 1011138
02:00+8nw368819 0.0 1011171
05:00+9wnw377787 0.0 1012402
08:00+10wnw46675 0.0 1012675
11:00+13wnw46535 0.0 10121382
14:00+14wnw465323 0.1 10121522
17:00+14wnw455427 0.3 10121399
20:00+12w36765 1.1 1012423
20 may, thu
thu2023:00+9wnw37885 0.1 1014189
02:00+7w38910 0.1 1014299
05:00+6w49855 0.0 1015345
08:00+9wsw597312 0.0 1015779
11:00+10w5769100 0.1 10161121
14:00+12w696092 0.4 10171495
17:00+13w694897 0.1 10162028
20:00+10w69585 0.2 10171246
21 may, fri
fri2123:00+8w510675 0.0 1017831
02:00+6wsw410765 0.0 1017585
05:00+4sw399383 0.0 1016295
08:00+9sw4985100 0.0 1015541
11:00+14sw465376 0.0 10131189
14:00+13ssw4962100 0.1 10121424
17:00+10s4990100 0.7 1010728
20:00+9s51196100 2.2 1008800